Location: Geography Hall
(41.1195°N, 80.5706°W)
Time: 00:27:29
(UTC+00:00)

H-2A R/B - Pass Details

Date: 29 October 2020
Orbit: 528 x 653 km, 98.3° (Epoch: 02 December)

Event Time Altitude Azimuth Distance (km) Brightness Sun altitude
Rises 22:46:07 0° 181° (S) 2,917 6.2 -5.4°
Reaches altitude 10° 22:48:22 10° 188° (S) 2,027 5.5 -5.8°
Maximum altitude 22:52:37 44° 261° (W) 894 4.1 -6.6°
Drops below altitude 10° 22:56:57 10° 334° (NNW) 2,069 5.4 -7.4°
Sets 22:59:16 0° 341° (NNW) 2,984 6.2 -7.8°
